Location: DaVinci Observatory
(43.1080°N, 78.6453°W)
Time: 19:00:37
(UTC-05:00)

Vanguard 1 - All Passes

Search period start: 24 February 2018 00:00
Search period end: 06 March 2018 00:00
Orbit: 650 x 3833 km, 34.2° (Epoch: 24 February)

Date Brightness Start Highest point End Pass type
(mag) Time Alt. Az. Time Alt. Az. Time Alt. Az.
24 Feb - 10:40:18 10° S 10:51:57 18° SE 11:00:56 10° ESE daylight
24 Feb - 12:59:21 10° SW 13:14:53 38° SSE 13:24:12 10° E daylight
24 Feb - 15:23:58 10° WSW 15:36:45 49° S 15:43:48 10° ESE daylight
24 Feb - 17:49:05 10° W 17:56:58 34° SSW 18:01:59 10° SE daylight
25 Feb - 10:58:32 10° SSW 11:13:03 24° SSE 11:23:27 10° ESE daylight
25 Feb - 13:19:54 10° SW 13:35:59 44° SSE 13:45:16 10° E daylight
25 Feb - 15:45:15 10° WSW 15:57:41 50° S 16:04:32 10° ESE daylight
25 Feb - 18:10:32 10° W 18:17:34 28° SSW 18:22:16 10° SSE daylight
26 Feb - 09:08:22 10° SE 09:10:52 10° SE 09:13:15 10° SE daylight
26 Feb - 11:17:41 10° SSW 11:34:09 31° SSE 11:45:17 10° E daylight
26 Feb - 13:40:44 10° SW 13:57:04 49° S 14:06:13 10° E daylight
26 Feb - 16:06:36 10° W 16:18:34 49° S 16:25:13 10° ESE daylight
26 Feb - 18:32:10 10° W 18:38:04 22° SW 18:42:17 10° SSE visible
27 Feb - 09:20:56 10° S 09:31:52 16° SE 09:41:05 10° ESE daylight
27 Feb - 11:37:28 10° SSW 11:55:16 37° SSE 12:06:44 10° E daylight
27 Feb - 14:01:49 10° WSW 14:18:08 53° S 14:27:05 10° E daylight
27 Feb - 16:28:02 10° W 16:39:22 45° SSW 16:45:49 10° SE daylight
27 Feb - 18:54:13 10° WSW 18:58:27 16° SW 19:01:48 10° S visible
28 Feb - 09:38:10 10° S 09:52:52 22° SE 10:04:28 10° E daylight
28 Feb - 11:57:43 10° SW 12:16:24 43° SSE 12:27:56 10° E daylight
28 Feb - 14:23:04 10° WSW 14:39:11 55° S 14:47:54 10° ESE daylight
28 Feb - 16:49:29 10° W 17:00:06 40° SSW 17:06:17 10° SE daylight
28 Feb - 19:18:25 10° SW 19:18:44 10° SW 19:19:02 10° SW visible
01 Mar - 09:56:43 10° SSW 10:13:53 28° SE 10:26:46 10° E daylight
01 Mar - 12:18:19 10° SW 12:37:32 49° SSE 12:49:00 10° E daylight
01 Mar - 14:44:27 10° WSW 15:00:11 56° S 15:08:40 10° ESE daylight
01 Mar - 17:11:02 10° W 17:20:42 33° SSW 17:26:35 10° SSE daylight
02 Mar - 08:03:53 10° SSE 08:11:31 13° SE 08:18:37 10° ESE daylight
02 Mar - 10:16:02 10° SSW 10:34:56 35° SSE 10:48:31 10° E daylight
02 Mar - 12:39:14 10° WSW 12:58:41 54° S 13:09:58 10° E daylight
02 Mar - 15:05:55 10° W 15:21:08 54° S 15:29:23 10° ESE daylight
02 Mar - 17:32:44 10° W 17:41:10 26° SW 17:46:40 10° SSE daylight
03 Mar - 08:19:08 10° S 08:32:20 19° SE 08:43:58 10° E daylight
03 Mar - 10:35:55 10° SW 10:56:01 41° SSE 11:09:57 10° E daylight
03 Mar - 13:00:22 10° WSW 13:19:49 58° S 13:30:53 10° E daylight
03 Mar - 15:27:26 10° W 15:42:00 50° SSW 15:49:59 10° SE daylight
03 Mar - 17:54:43 10° W 18:01:31 20° SW 18:06:20 10° S daylight
04 Mar - 08:36:48 10° S 08:53:11 25° SE 09:07:05 10° E daylight
04 Mar - 10:56:12 10° SW 11:17:09 48° SSE 11:31:11 10° E daylight
04 Mar - 13:21:41 10° WSW 13:40:57 60° S 13:51:44 10° ESE daylight
04 Mar - 15:49:01 10° W 16:02:46 45° SSW 16:10:28 10° SE daylight
04 Mar - 18:17:23 10° WSW 18:21:44 14° SW 18:25:13 10° SSW daylight
05 Mar - 08:55:33 10° SSW 09:14:04 31° SE 09:29:18 10° E daylight
05 Mar - 11:16:50 10° SW 11:38:19 53° SSE 11:52:17 10° E daylight
05 Mar - 13:43:07 10° WSW 14:02:02 60° S 14:12:31 10° ESE daylight
05 Mar - 16:10:39 10° W 16:23:24 38° SSW 16:30:48 10° SE daylight
